Perth, Australia

4:04 AM AWST on July 24, 2017 (GMT +0800)
Perth International

Weather History for YPPH - October, 2013

Change the Weather History Date:

Friday, October 4, 2013

  Actual Average Record
Temperature  
Mean Temperature 63 °F -  
Max Temperature 71 °F 73 °F 82 °F (2002)
Min Temperature 53 °F 52 °F 41 °F (2004)
Degree Days  
Heating Degree Days 2    
Growing Degree Days 13 (Base 50)    
Moisture  
Dew Point 54 °F    
Average Humidity 72    
Maximum Humidity 100    
Minimum Humidity 48    
Precipitation  
Precipitation 0.00 in 0.06 in - ()
Sea Level Pressure  
Sea Level Pressure 30.04 in    
Wind  
Wind Speed 8 mph ()    
Max Wind Speed 16 mph    
Max Gust Speed -    
Visibility 7.3 miles    
Events Rain    
Averages and records for this station are not official NWS values.
T = Trace of Precipitation, MM = Missing Value Source: Averaged Metar Reports

Daily Weather History Graph

Daily Weather History Graph

Search for Another Location

Airport or City:

Trip Planner

Search our weather history database for the weather conditions in past years. The results will help you decide how hot, cold, wet, or windy it might be!

Date:

Astronomy

Oct. 04, 2013 Rise Set
Actual Time 5:50 AM AWST 6:20 PM AWST
Civil Twilight 5:25 AM AWST 6:44 PM AWST
Nautical Twilight 4:57 AM AWST 7:13 PM AWST
Astronomical Twilight 4:27 AM AWST 7:42 PM AWST
Moon 5:03 AM AWST (10/4) 5:41 PM AWST (10/4)
Length of Visible Light 13h 18m
Length of Day
12h 29m
Waning Crescent, 1% of the Moon is Illuminated
Oct 4
Waning Crescent
Oct 5
New
Oct 12
First Quarter
Oct 19
Full
Oct 27
Last Quarter

Hourly Weather History & Observations

Time (AWST) Temp. Dew Point Humidity Pressure Visibility Wind Dir Wind Speed Gust Speed Precip Events Conditions
12:00 AM 62 °F 52 °F 62% 30.03 in 19 mi SSW 10.4 mph - -   Partly Cloudy
12:00 AM 62.6 °F 51.8 °F 68% 30.01 in 6.2 mi SSW 10.4 mph - N/A   Mostly Cloudy
12:30 AM 62.6 °F 51.8 °F 68% 30.01 in 6.2 mi SW 12.7 mph - N/A   Mostly Cloudy
1:00 AM 62.6 °F 51.8 °F 68% 30.01 in 6.2 mi SW 10.4 mph - N/A   Mostly Cloudy
1:30 AM 62.6 °F 51.8 °F 68% 30.01 in 6.2 mi SW 9.2 mph - N/A   Mostly Cloudy
2:00 AM 62 °F 52 °F 62% 30.02 in - SW 8.1 mph - -  
2:00 AM 62.6 °F 51.8 °F 68% 30.01 in 6.2 mi SW 8.1 mph - N/A   Mostly Cloudy
2:30 AM 62.6 °F 51.8 °F 68% 30.01 in 6.2 mi SW 8.1 mph - N/A   Mostly Cloudy
3:00 AM 62 °F 52 °F 61% 30.02 in 19 mi SW 6.9 mph - -   Partly Cloudy
3:00 AM 62.6 °F 51.8 °F 68% 30.01 in 6.2 mi SW 6.9 mph - N/A   Mostly Cloudy
3:30 AM 62.6 °F 51.8 °F 68% 30.01 in 6.2 mi SW 5.8 mph - N/A   Mostly Cloudy
4:00 AM 62.6 °F 51.8 °F 68% 30.01 in 6.2 mi SSW 5.8 mph - N/A   Mostly Cloudy
4:30 AM 62.6 °F 53.6 °F 72% 30.01 in 6.2 mi SSW 5.8 mph - N/A   Mostly Cloudy
5:00 AM 62 °F 53 °F 65% 30.02 in - SW 4.6 mph - -  
5:00 AM 62.6 °F 53.6 °F 72% 30.01 in 6.2 mi SW 4.6 mph - N/A   Mostly Cloudy
5:30 AM 62.6 °F 53.6 °F 72% 30.01 in 6.2 mi SSW 5.8 mph - N/A   Mostly Cloudy
6:00 AM 61 °F 55 °F 73% 30.04 in 19 mi SW 5.8 mph - -   Partly Cloudy
6:00 AM 60.8 °F 55.4 °F 82% 30.04 in 6.2 mi SW 5.8 mph - N/A   Mostly Cloudy
6:30 AM 62.6 °F 51.8 °F 68% 30.04 in 6.2 mi SW 8.1 mph - N/A   Mostly Cloudy
7:00 AM 62.6 °F 51.8 °F 68% 30.04 in 6.2 mi SW 9.2 mph - N/A   Scattered Clouds
7:30 AM 64.4 °F 51.8 °F 64% 30.04 in 6.2 mi SSW 6.9 mph - N/A   Mostly Cloudy
8:00 AM 65 °F 50 °F 48% 30.06 in - SW 10.4 mph - -  
8:00 AM 64.4 °F 50.0 °F 59% 30.06 in 6.2 mi SW 10.4 mph - N/A   Mostly Cloudy
8:30 AM 66.2 °F 51.8 °F 60% 30.06 in 6.2 mi SSW 8.1 mph - N/A   Unknown
9:00 AM 66 °F 51 °F 48% 30.07 in 19 mi SW 10.4 mph - -   Partly Cloudy
9:00 AM 66.2 °F 51.8 °F 60% 30.06 in 6.2 mi SW 10.4 mph - N/A   Mostly Cloudy
9:30 AM 68.0 °F 53.6 °F 60% 30.06 in 6.2 mi West 9.2 mph - N/A   Mostly Cloudy
10:00 AM 68.0 °F 51.8 °F 56% 30.06 in 6.2 mi WSW 8.1 mph - N/A   Mostly Cloudy
10:30 AM 68.0 °F 51.8 °F 56% 30.06 in 6.2 mi WSW 11.5 mph - N/A   Mostly Cloudy
11:00 AM 68 °F 53 °F 49% 30.06 in - West 11.5 mph - -  
11:00 AM 68.0 °F 53.6 °F 60% 30.06 in 6.2 mi West 11.5 mph - N/A   Mostly Cloudy
11:30 AM 69.8 °F 53.6 °F 56% 30.04 in 6.2 mi SW 11.5 mph - N/A   Mostly Cloudy
12:30 PM 69.8 °F 55.4 °F 60% 30.04 in 6.2 mi West 12.7 mph - N/A   Scattered Clouds
1:00 PM 69.8 °F 53.6 °F 56% 30.04 in 6.2 mi West 10.4 mph - N/A   Scattered Clouds
1:30 PM 69.8 °F 53.6 °F 56% 30.04 in 6.2 mi West 11.5 mph - N/A   Mostly Cloudy
2:00 PM 70 °F 55 °F 49% 30.04 in - West 11.5 mph - -  
2:00 PM 69.8 °F 55.4 °F 60% 30.04 in 6.2 mi West 11.5 mph - N/A   Mostly Cloudy
2:30 PM 68.0 °F 55.4 °F 64% 30.04 in 6.2 mi West 16.1 mph - N/A Rain Light Rain Showers
2:37 PM 64.4 °F 60.8 °F 88% 30.04 in 3.7 mi West 16.1 mph - N/A Rain Light Rain Showers
2:45 PM 64.4 °F 60.8 °F 88% 30.04 in 6.2 mi West 11.5 mph - N/A   Mostly Cloudy
2:57 PM 64.4 °F 59.0 °F 83% 30.04 in 5.6 mi WNW 9.2 mph - N/A Rain Light Rain Showers
3:00 PM 65 °F 59 °F 76% 30.04 in 3 mi WNW 8.1 mph - - Rain Light Rain Showers
3:23 PM 64.4 °F 60.8 °F 88% 30.04 in 6.2 mi West 10.4 mph - N/A   Mostly Cloudy
3:30 PM 64.4 °F 60.8 °F 88% 30.04 in 6.2 mi West 12.7 mph - N/A   Mostly Cloudy
3:46 PM 62.6 °F 59.0 °F 88% 30.04 in 3.1 mi WSW 16.1 mph - N/A Rain Light Rain Showers
4:00 PM 60.8 °F 59.0 °F 94% 30.04 in 3.1 mi WSW 15.0 mph - N/A Rain Light Rain Showers
4:15 PM 62.6 °F 57.2 °F 82% 30.04 in 6.2 mi SW 8.1 mph - N/A   Mostly Cloudy
4:30 PM 64.4 °F 57.2 °F 77% 30.04 in 6.2 mi WSW 6.9 mph - N/A   Mostly Cloudy
5:00 PM 65 °F 56 °F 65% 30.04 in - WSW 8.1 mph - -  
5:00 PM 64.4 °F 55.4 °F 73% 30.04 in 6.2 mi WSW 8.1 mph - N/A   Mostly Cloudy
5:30 PM 66.2 °F 55.4 °F 68% 30.04 in 6.2 mi SW 9.2 mph - N/A   Mostly Cloudy
6:00 PM 66 °F 55 °F 58% 30.04 in 19 mi SW 11.5 mph - -   Partly Cloudy
6:00 PM 66.2 °F 55.4 °F 68% 30.04 in 6.2 mi SW 11.5 mph - N/A   Mostly Cloudy
6:30 PM 64.4 °F 53.6 °F 68% 30.04 in 6.2 mi SW 10.4 mph - N/A   Partly Cloudy
7:00 PM 62.6 °F 53.6 °F 72% 30.04 in 6.2 mi SW 8.1 mph - N/A   Partly Cloudy
7:30 PM 62.6 °F 55.4 °F 77% 30.04 in 6.2 mi SW 6.9 mph - N/A   Partly Cloudy
8:00 PM 60 °F 55 °F 79% 30.06 in - West 4.6 mph - -  
8:00 PM 60.8 °F 55.4 °F 82% 30.06 in 6.2 mi West 4.6 mph - N/A   Partly Cloudy
8:30 PM 59.0 °F 57.2 °F 94% 30.06 in 6.2 mi West 5.8 mph - N/A   Partly Cloudy
9:00 PM 57 °F 55 °F 92% 30.07 in 19 mi West 4.6 mph - -   Partly Cloudy
9:00 PM 57.2 °F 55.4 °F 94% 30.06 in 6.2 mi West 4.6 mph - N/A   Partly Cloudy
9:30 PM 57.2 °F 55.4 °F 94% 30.06 in 6.2 mi South 4.6 mph - N/A   Partly Cloudy
10:00 PM 55.4 °F 53.6 °F 94% 30.06 in 6.2 mi ENE 5.8 mph - N/A   Partly Cloudy
10:30 PM 55.4 °F 55.4 °F 100% 30.04 in 6.2 mi NNE 5.8 mph - N/A   Partly Cloudy
11:00 PM 55 °F 53 °F 92% 30.05 in - NNE 5.8 mph - -  
11:00 PM 55.4 °F 53.6 °F 94% 30.04 in 6.2 mi NNE 5.8 mph - N/A   Partly Cloudy
11:30 PM 53.6 °F 53.6 °F 100% 30.04 in 6.2 mi NE 5.8 mph - N/A   Partly Cloudy